| time (UTC) | temp C | wind direction | speed KPH | gust KPH | rain 1hr cm | rain 24hr cm | rain mn cm | humidity % | barometer mb |
| 20260507110059 | 12 | 0 | 3.2 | 9.7 | 0.00 | 0.00 | 0.00 | 67 | 1012.6 |
| 20260507104558 | 12 | 268 | 3.2 | 4.8 | 0.00 | 0.00 | 0.00 | 68 | 1012.5 |
| 20260507103059 | 12 | 314 | 3.2 | 12.9 | 0.00 | 0.00 | 0.00 | 70 | 1012.8 |
| 20260507101603 | 11 | 63 | 3.2 | 12.9 | 0.00 | 0.00 | 0.00 | 70 | 1012.8 |
| 20260507100115 | 11 | 23 | 4.8 | 12.9 | 0.00 | 0.00 | 0.00 | 74 | 1012.9 |
| 20260507094607 | 10 | 54 | 3.2 | 8.0 | 0.00 | 0.00 | 0.00 | 75 | 1013.0 |
| 20260507093057 | 10 | 19 | 1.6 | 9.7 | 0.00 | 0.00 | 0.00 | 77 | 1013.0 |
| 20260507091635 | 10 | 77 | 4.8 | 9.7 | 0.00 | 0.00 | 0.00 | 77 | 1013.1 |
| 20260507090058 | 10 | 103 | 3.2 | 6.4 | 0.00 | 0.00 | 0.00 | 78 | 1012.8 |
| 20260507084610 | 10 | 63 | 3.2 | 6.4 | 0.00 | 0.00 | 0.00 | 82 | 1012.8 |
| 20260507083100 | 9 | 111 | 1.6 | 6.4 | 0.00 | 0.00 | 0.00 | 82 | 1012.7 |
| 20260507081602 | 9 | 86 | 3.2 | 6.4 | 0.00 | 0.00 | 0.00 | 80 | 1012.7 |
| 20260507080100 | 10 | 60 | 1.6 | 3.2 | 0.00 | 0.00 | 0.00 | 77 | 1012.7 |
| 20260507074604 | 9 | 0 | 0.0 | 6.4 | 0.00 | 0.00 | 0.00 | 78 | 1012.6 |
| 20260507073103 | 9 | 52 | 4.8 | 11.3 | 0.00 | 0.00 | 0.00 | 78 | 1012.4 |
| 20260507071559 | 9 | 13 | 1.6 | 14.5 | 0.00 | 0.00 | 0.00 | 80 | 1012.3 |
| 20260507070106 | 8 | 54 | 6.4 | 12.9 | 0.00 | 0.00 | 0.00 | 82 | 1012.3 |
| 20260507064559 | 7 | 61 | 6.4 | 11.3 | 0.00 | 0.00 | 0.00 | 86 | 1012.3 |
| 20260507063059 | 6 | 79 | 3.2 | 6.4 | 0.00 | 0.00 | 0.00 | 88 | 1012.1 |
| 20260507061600 | 6 | 75 | 3.2 | 6.4 | 0.00 | 0.00 | 0.00 | 89 | 1012.1 |
| 20260507060103 | 6 | 82 | 0.0 | 6.4 | 0.00 | 0.00 | 0.00 | 89 | 1012.1 |
| 20260507054559 | 6 | 65 | 3.2 | 8.0 | 0.00 | 0.00 | 0.00 | 89 | 1012.1 |
| 20260507053058 | 6 | 113 | 1.6 | 4.8 | 0.00 | 0.00 | 0.00 | 89 | 1012.1 |
| 20260507051602 | 6 | 0 | 0.0 | 3.2 | 0.00 | 0.00 | 0.00 | 89 | 1012.0 |
| 20260507050059 | 5 | 69 | 0.0 | 3.2 | 0.00 | 0.00 | 0.00 | 89 | 1012.1 |
| 20260507044616 | 5 | 0 | 0.0 | 1.6 | 0.00 | 0.00 | 0.00 | 89 | 1012.1 |
| 20260507041609 | 5 | 0 | 0.0 | 1.6 | 0.00 | 0.00 | 0.00 | 88 | 1012.4 |
| 20260507040059 | 5 | 0 | 0.0 | 1.6 | 0.00 | 0.00 | 0.00 | 89 | 1012.4 |
| 20260507034558 | 5 | 108 | 0.0 | 1.6 | 0.00 | 0.00 | 0.00 | 89 | 1012.4 |
| 20260507033058 | 6 | 118 | 0.0 | 3.2 | 0.00 | 0.00 | 0.00 | 87 | 1012.4 |
| 20260507031600 | 6 | 100 | 0.0 | 3.2 | 0.00 | 0.00 | 0.00 | 87 | 1012.5 |
| 20260507030101 | 6 | 101 | 3.2 | 11.3 | 0.00 | 0.00 | 0.00 | 87 | 1012.4 |
| 20260507024600 | 6 | 98 | 6.4 | 11.3 | 0.00 | 0.00 | 0.00 | 87 | 1012.4 |
| 20260507023109 | 6 | 78 | 6.4 | 14.5 | 0.00 | 0.00 | 0.00 | 87 | 1012.4 |
| 20260507021559 | 6 | 114 | 8.0 | 14.5 | 0.00 | 0.00 | 0.00 | 87 | 1012.4 |
| 20260507020104 | 6 | 67 | 8.0 | 12.9 | 0.00 | 0.00 | 0.00 | 86 | 1012.4 |
| 20260507014559 | 6 | 72 | 8.0 | 16.1 | 0.00 | 0.00 | 0.00 | 86 | 1012.4 |
| 20260507013100 | 6 | 48 | 6.4 | 14.5 | 0.00 | 0.00 | 0.00 | 85 | 1012.5 |
| 20260507011601 | 6 | 79 | 9.7 | 19.3 | 0.00 | 0.00 | 0.00 | 85 | 1012.6 |
| 20260507010059 | 6 | 126 | 8.0 | 12.9 | 0.00 | 0.00 | 0.00 | 85 | 1012.7 |
| 20260507004607 | 7 | 60 | 6.4 | 14.5 | 0.00 | 0.00 | 0.00 | 84 | 1012.8 |
| 20260507003116 | 7 | 47 | 6.4 | 12.9 | 0.00 | 0.00 | 0.00 | 83 | 1012.9 |
| 20260507001614 | 7 | 66 | 6.4 | 16.1 | 0.00 | 0.00 | 0.00 | 82 | 1012.9 |
| 20260507000057 | 7 | 53 | 11.3 | 19.3 | 0.00 | 0.00 | 0.00 | 81 | 1012.7 |
| 20260506234600 | 7 | 61 | 11.3 | 19.3 | 0.00 | 0.00 | 0.00 | 81 | 1012.7 |
| 20260506233058 | 7 | 34 | 6.4 | 19.3 | 0.00 | 0.00 | 0.00 | 80 | 1012.8 |
| 20260506231607 | 7 | 87 | 9.7 | 19.3 | 0.00 | 0.00 | 0.00 | 80 | 1012.7 |
| 20260506230114 | 7 | 117 | 8.0 | 19.3 | 0.00 | 0.00 | 0.00 | 80 | 1012.7 |
| 20260506224557 | 8 | 82 | 12.9 | 20.9 | 0.00 | 0.00 | 0.00 | 79 | 1012.7 |
| 20260506223104 | 8 | 79 | 11.3 | 19.3 | 0.00 | 0.00 | 0.00 | 78 | 1012.7 |
| 20260506221610 | 8 | 84 | 8.0 | 16.1 | 0.00 | 0.00 | 0.00 | 77 | 1012.7 |
| 20260506220100 | 8 | 101 | 4.8 | 11.3 | 0.00 | 0.00 | 0.00 | 77 | 1012.8 |
| 20260506214559 | 8 | 94 | 4.8 | 14.5 | 0.00 | 0.00 | 0.00 | 75 | 1012.6 |
| 20260506213103 | 9 | 77 | 8.0 | 14.5 | 0.00 | 0.00 | 0.00 | 74 | 1012.7 |
| 20260506211559 | 9 | 64 | 6.4 | 14.5 | 0.00 | 0.00 | 0.00 | 72 | 1012.8 |
| 20260506204558 | 10 | 60 | 4.8 | 11.3 | 0.00 | 0.00 | 0.00 | 63 | 1012.2 |
| 20260506203119 | 11 | 76 | 4.8 | 11.3 | 0.00 | 0.00 | 0.00 | 58 | 1012.2 |
| 20260506201558 | 11 | 61 | 0.0 | 6.4 | 0.00 | 0.00 | 0.00 | 56 | 1012.1 |
| 20260506200109 | 12 | 120 | 3.2 | 8.0 | 0.00 | 0.00 | 0.00 | 54 | 1011.8 |
| 20260506194600 | 12 | 63 | 3.2 | 6.4 | 0.00 | 0.00 | 0.00 | 53 | 1011.7 |
| 20260506193105 | 12 | 116 | 3.2 | 6.4 | 0.00 | 0.00 | 0.00 | 52 | 1011.6 |
| 20260506191559 | 13 | 112 | 0.0 | 4.8 | 0.00 | 0.00 | 0.00 | 50 | 1011.5 |
| 20260506184556 | 15 | 6 | 4.8 | 8.0 | 0.00 | 0.00 | 0.00 | 44 | 1011.3 |
| 20260506183107 | 16 | 345 | 1.6 | 8.0 | 0.00 | 0.00 | 0.00 | 41 | 1011.3 |
| 20260506181603 | 16 | 61 | 1.6 | 4.8 | 0.00 | 0.00 | 0.00 | 38 | 1011.1 |
| 20260506174557 | 17 | 277 | 1.6 | 4.8 | 0.00 | 0.00 | 0.00 | 34 | 1011.1 |
| 20260506173109 | 17 | 269 | 0.0 | 4.8 | 0.00 | 0.00 | 0.00 | 33 | 1011.2 |
| 20260506171559 | 16 | 294 | 1.6 | 8.0 | 0.00 | 0.00 | 0.00 | 39 | 1011.2 |
| 20260506170107 | 16 | 293 | 3.2 | 8.0 | 0.00 | 0.00 | 0.00 | 39 | 1011.4 |
| 20260506164625 | 16 | 264 | 3.2 | 11.3 | 0.00 | 0.00 | 0.00 | 38 | 1011.4 |
| 20260506163109 | 16 | 279 | 0.0 | 9.7 | 0.00 | 0.00 | 0.00 | 36 | 1011.4 |
| 20260506161557 | 16 | 255 | 4.8 | 9.7 | 0.00 | 0.00 | 0.00 | 38 | 1011.5 |
| 20260506160122 | 15 | 58 | 4.8 | 9.7 | 0.00 | 0.00 | 0.00 | 37 | 1011.6 |
| 20260506154558 | 15 | 198 | 0.0 | 6.4 | 0.00 | 0.00 | 0.00 | 40 | 1011.7 |
| 20260506153058 | 16 | 208 | 1.6 | 6.4 | 0.00 | 0.00 | 0.00 | 42 | 1011.7 |
| 20260506151604 | 15 | 63 | 1.6 | 3.2 | 0.00 | 0.00 | 0.00 | 40 | 1011.8 |
| 20260506150108 | 15 | 259 | 0.0 | 8.0 | 0.00 | 0.00 | 0.00 | 43 | 1012.0 |
| 20260506144610 | 15 | 29 | 4.8 | 12.9 | 0.00 | 0.00 | 0.00 | 43 | 1012.0 |
| 20260506143101 | 15 | 255 | 1.6 | 9.7 | 0.00 | 0.00 | 0.00 | 41 | 1012.1 |
| 20260506141600 | 15 | 356 | 4.8 | 17.7 | 0.00 | 0.00 | 0.00 | 41 | 1012.2 |
| 20260506140100 | 15 | 102 | 4.8 | 19.3 | 0.00 | 0.00 | 0.00 | 43 | 1012.4 |
| 20260506134601 | 15 | 28 | 4.8 | 16.1 | 0.00 | 0.15 | 0.00 | 42 | 1012.6 |
| 20260506133115 | 14 | 0 | 9.7 | 14.5 | 0.00 | 0.15 | 0.00 | 43 | 1012.8 |
| 20260506131616 | 14 | 320 | 8.0 | 19.3 | 0.00 | 0.15 | 0.00 | 44 | 1012.9 |
| 20260506130101 | 14 | 263 | 1.6 | 11.3 | 0.00 | 0.15 | 0.00 | 42 | 1012.9 |
| 20260506124601 | 13 | 0 | 1.6 | 12.9 | 0.00 | 0.18 | 0.00 | 45 | 1013.2 |
| 20260506123100 | 13 | 120 | 8.0 | 14.5 | 0.00 | 0.18 | 0.00 | 48 | 1013.1 |
| 20260506121602 | 12 | 0 | 6.4 | 14.5 | 0.00 | 0.18 | 0.00 | 50 | 1013.3 |
| 20260506120110 | 12 | 126 | 3.2 | 12.9 | 0.00 | 0.18 | 0.00 | 53 | 1013.4 |
| 20260506114600 | 12 | 0 | 1.6 | 11.3 | 0.00 | 0.18 | 0.00 | 54 | 1013.5 |
| 20260506113100 | 12 | 184 | 3.2 | 11.3 | 0.00 | 0.18 | 0.00 | 54 | 1013.6 |
| 20260506111559 | 11 | 265 | 8.0 | 14.5 | 0.00 | 0.18 | 0.00 | 56 | 1013.8 |